20-11-01-22:27:36,0.437500
20-11-01-22:30:01,0.362500
20-11-01-22:35:01,0.337500
20-11-01-22:40:01,0.375000
20-11-01-22:45:01,0.162500
20-11-01-22:50:01,0.075000
20-11-01-22:55:01,0.412500
20-11-01-23:00:01,0.187500
20-11-01-23:05:01,0.187500
20-11-01-23:10:01,0.150000
20-11-01-23:15:01,0.187500
20-11-01-23:20:01,0.437500
20-11-01-23:25:01,0.512500
20-11-01-23:30:01,0.250000
20-11-01-23:35:01,0.137500
20-11-01-23:40:01,0.025000
20-11-01-23:45:01,0.012500
20-11-01-23:50:01,0.062500
20-11-01-23:55:01,0.725000
20-11-02-00:00:01,0.537500
20-11-02-00:05:01,0.187500
20-11-02-00:10:01,0.312500
20-11-02-00:15:01,0.187500
20-11-02-00:20:01,0.537500
20-11-02-00:25:01,0.162500
20-11-02-00:30:01,0.250000
20-11-02-00:35:01,0.187500
20-11-02-00:40:01,0.550000
20-11-02-00:45:01,0.650000
20-11-02-00:50:01,0.087500
20-11-02-00:55:01,0.200000
20-11-02-01:00:01,0.200000
20-11-02-01:05:01,0.187500
20-11-02-01:10:01,0.125000
20-11-02-01:15:01,0.312500
20-11-02-01:20:01,0.112500
20-11-02-01:25:01,0.125000
20-11-02-01:30:01,0.162500
20-11-02-01:35:01,0.487500
20-11-02-01:40:01,0.287500
20-11-02-01:45:01,0.237500
20-11-02-01:50:01,0.362500
20-11-02-01:55:01,0.112500
20-11-02-02:00:01,0.200000
20-11-02-02:05:01,0.187500
20-11-02-02:10:01,0.312500
20-11-02-02:15:01,0.512500
20-11-02-02:20:01,0.325000
20-11-02-02:25:01,0.250000
20-11-02-02:30:01,0.325000
20-11-02-02:35:01,0.425000
20-11-02-02:40:01,0.237500
20-11-02-02:45:01,0.300000
20-11-02-02:50:01,0.187500
20-11-02-02:55:01,0.525000
20-11-02-03:00:01,0.612500
20-11-02-03:05:01,0.437500
20-11-02-03:10:01,0.250000
20-11-02-03:15:01,0.187500
20-11-02-03:20:01,0.287500
20-11-02-03:25:01,0.100000
20-11-02-03:30:01,0.250000
20-11-02-03:35:01,-0.012500
20-11-02-03:40:01,-0.250000
20-11-02-03:45:01,0.187500
20-11-02-03:50:01,-0.312500
20-11-02-03:55:01,-0.625000
20-11-02-04:00:01,-0.312500
20-11-02-04:05:01,-0.687500
20-11-02-04:10:01,-0.625000
20-11-02-04:15:01,-0.225000
20-11-02-04:20:01,2.775000
20-11-02-04:25:01,4.475000
20-11-02-04:30:01,0.450000
20-11-02-04:35:01,-0.812500
20-11-02-04:40:01,-1.000000
20-11-02-04:45:01,-1.050000
20-11-02-04:50:01,-1.175000
20-11-02-04:55:01,-1.312500
20-11-02-05:00:01,-1.300000
20-11-02-05:05:01,-1.187500
20-11-02-05:10:01,3.325000
20-11-02-05:15:01,2.950000
20-11-02-05:20:01,3.775000
20-11-02-05:25:01,5.700000
20-11-02-05:30:01,7.925000
20-11-02-05:35:01,7.700000
20-11-02-05:40:01,4.525000
20-11-02-05:45:01,9.062500
20-11-02-05:50:01,6.412500
20-11-02-05:55:01,8.975000
20-11-02-06:00:01,3.500000
20-11-02-06:05:01,4.500000
20-11-02-06:10:01,3.562500
20-11-02-06:15:01,6.000000
20-11-02-06:20:01,4.150000
20-11-02-06:25:01,7.212500
20-11-02-06:30:01,4.550000
20-11-02-06:35:01,5.750000
20-11-02-06:40:01,6.362500
20-11-02-06:45:01,6.037500
20-11-02-06:50:01,7.312500
20-11-02-06:55:01,6.287500
20-11-02-07:00:01,6.350000
20-11-02-07:05:01,2.637500
20-11-02-07:10:01,1.425000
20-11-02-07:15:01,-0.125000
20-11-02-07:20:01,2.250000
20-11-02-07:25:01,1.887500
20-11-02-07:30:01,2.087500
20-11-02-07:35:01,1.050000
20-11-02-07:40:01,0.425000
20-11-02-07:45:01,1.600000
20-11-02-07:50:01,4.375000
20-11-02-07:55:01,3.525000
20-11-02-08:00:01,3.550000
20-11-02-08:05:01,5.362500
20-11-02-08:10:01,3.537500
20-11-02-08:15:01,4.225000
20-11-02-08:20:01,0.625000
20-11-02-08:25:01,3.525000
20-11-02-08:30:01,6.525000
20-11-02-08:35:01,4.725000
20-11-02-08:40:01,6.225000
20-11-02-08:45:01,5.200000
20-11-02-08:50:02,4.800000
20-11-02-08:55:01,6.550000
20-11-02-09:00:01,5.187500
20-11-02-09:05:01,4.700000
20-11-02-09:10:01,4.612500
20-11-02-09:15:01,5.262500
20-11-02-09:20:01,6.262500
20-11-02-09:25:01,3.125000
20-11-02-09:30:01,4.275000
20-11-02-09:35:02,2.512500
20-11-02-09:40:01,4.987500
20-11-02-09:45:01,4.650000
20-11-02-09:50:01,-0.025000
20-11-02-09:55:01,1.387500
20-11-02-10:00:01,3.400000
20-11-02-10:05:01,2.375000
20-11-02-10:10:01,0.062500
20-11-02-10:15:01,-2.125000
20-11-02-10:20:01,-1.362500
20-11-02-10:25:01,-0.637500
20-11-02-10:30:01,-1.875000
20-11-02-10:35:01,-2.312500
20-11-02-10:40:01,-0.637500
20-11-02-10:45:01,-0.412500
20-11-02-10:50:01,-1.162500
20-11-02-10:55:01,-2.000000
20-11-02-11:00:01,0.650000
20-11-02-11:05:01,-0.850000
20-11-02-11:10:01,0.737500
20-11-02-11:15:01,2.275000
20-11-02-11:20:01,-1.387500
20-11-02-11:25:01,0.487500
20-11-02-11:30:01,-1.550000
20-11-02-11:35:01,-0.187500
20-11-02-11:40:01,-1.562500
20-11-02-11:45:01,-1.625000
20-11-02-11:50:01,-1.687500
20-11-02-11:55:01,-1.737500
20-11-02-12:00:01,-1.812500
20-11-02-12:05:01,-1.925000
20-11-02-12:10:01,-1.875000
20-11-02-12:15:01,-1.712500
20-11-02-12:20:01,-1.800000
20-11-02-12:25:01,-1.887500
20-11-02-12:30:01,-1.812500
20-11-02-12:35:01,-2.000000
20-11-02-12:40:01,-1.837500
20-11-02-12:45:01,-1.937500
20-11-02-12:50:01,-1.975000
20-11-02-12:55:01,-1.937500
20-11-02-13:00:01,-1.775000
20-11-02-13:05:01,-1.775000
20-11-02-13:10:01,-1.687500
20-11-02-13:15:01,-1.462500
20-11-02-13:20:01,-1.500000
20-11-02-13:25:01,-1.400000
20-11-02-13:30:01,-1.312500
20-11-02-13:35:01,-1.187500
20-11-02-13:40:01,-0.937500
20-11-02-13:45:01,-0.975000
20-11-02-13:50:01,-0.925000
20-11-02-13:55:01,-0.750000
20-11-02-14:00:01,-0.700000
20-11-02-14:05:01,-0.562500
20-11-02-14:10:01,-0.375000
20-11-02-14:15:01,-0.187500
20-11-02-14:20:01,-0.125000
20-11-02-14:25:01,0.175000
20-11-02-14:30:01,0.375000
20-11-02-14:35:01,0.325000
20-11-02-14:40:01,0.437500
20-11-02-14:45:01,0.625000
20-11-02-14:50:01,0.362500
20-11-02-14:55:01,0.375000
20-11-02-15:00:01,0.500000
20-11-02-15:05:01,0.612500
20-11-02-15:10:01,0.562500
20-11-02-15:15:01,0.625000
20-11-02-15:20:01,0.812500
20-11-02-15:25:01,0.687500
20-11-02-15:30:01,0.750000
20-11-02-15:35:01,0.937500
20-11-02-15:40:01,1.000000
20-11-02-15:45:01,1.437500
20-11-02-15:50:01,1.250000
20-11-02-15:55:01,1.437500
20-11-02-16:00:01,1.925000
20-11-02-16:05:01,2.250000
20-11-02-16:10:01,2.037500
20-11-02-16:15:01,1.750000
20-11-02-16:20:01,2.362500
20-11-02-16:25:01,2.737500
20-11-02-16:30:01,3.037500
20-11-02-16:35:01,2.875000
20-11-02-16:40:01,2.562500
20-11-02-16:45:01,3.000000
20-11-02-16:50:01,3.312500
20-11-02-16:55:01,3.250000
20-11-02-17:00:01,2.912500
20-11-02-17:05:01,3.612500
20-11-02-17:10:01,5.725000
20-11-02-17:15:01,4.962500
20-11-02-17:20:01,4.312500
20-11-02-17:25:01,4.362500
20-11-02-17:30:01,4.250000
20-11-02-17:35:01,5.025000
20-11-02-17:40:01,3.387500
20-11-02-17:45:01,3.062500
20-11-02-17:50:01,3.750000
20-11-02-17:55:01,3.312500
20-11-02-18:00:01,3.437500
20-11-02-18:05:01,4.575000
20-11-02-18:10:01,4.612500
20-11-02-18:15:01,5.062500
20-11-02-18:20:01,5.600000
20-11-02-18:25:01,5.425000
20-11-02-18:30:01,5.875000
20-11-02-18:35:01,5.100000
20-11-02-18:40:01,4.512500
20-11-02-18:45:01,4.312500
20-11-02-18:50:01,3.712500
20-11-02-18:55:01,4.000000
20-11-02-19:00:01,4.312500
20-11-02-19:05:01,4.237500
20-11-02-19:10:01,3.687500
20-11-02-19:15:01,3.375000
20-11-02-19:20:01,3.250000
20-11-02-19:25:01,3.400000
20-11-02-19:30:01,3.762500
20-11-02-19:35:01,4.687500
20-11-02-19:40:01,5.562500
20-11-02-19:45:01,5.187500
20-11-02-19:50:01,4.637500
20-11-02-19:55:01,5.400000
20-11-02-20:00:01,5.275000
20-11-02-20:05:01,5.362500
20-11-02-20:10:01,4.687500
20-11-02-20:15:01,4.537500
20-11-02-20:20:01,4.037500
20-11-02-20:25:01,3.925000
20-11-02-20:30:01,3.912500
20-11-02-20:35:01,3.787500
20-11-02-20:40:01,3.812500
20-11-02-20:45:01,3.662500
20-11-02-20:50:01,4.062500
20-11-02-20:55:01,3.687500
20-11-02-21:00:01,3.562500
20-11-02-21:05:01,3.575000
20-11-02-21:10:01,3.650000
20-11-02-21:15:01,4.150000
20-11-02-21:20:01,3.712500
20-11-02-21:25:01,3.875000
20-11-02-21:30:01,3.637500
20-11-02-21:35:01,3.625000
20-11-02-21:40:01,3.687500
20-11-02-21:45:01,3.750000
20-11-02-21:50:01,3.750000
20-11-02-21:55:01,3.750000
20-11-02-22:00:01,3.500000
20-11-02-22:05:01,3.775000
20-11-02-22:10:01,3.587500
20-11-02-22:15:01,3.375000
20-11-02-22:20:01,3.287500
20-11-02-22:25:01,3.250000
20-11-02-22:30:01,3.237500
20-11-02-22:35:01,3.262500
20-11-02-22:40:01,3.112500
20-11-02-22:45:01,3.250000
20-11-02-22:50:01,3.125000
20-11-02-22:55:01,3.062500
20-11-02-23:00:01,3.000000
20-11-02-23:05:01,3.087500
20-11-02-23:10:01,3.062500
20-11-02-23:15:01,3.225000
20-11-02-23:20:01,3.225000
20-11-02-23:25:01,3.300000
20-11-02-23:30:02,3.187500
20-11-02-23:35:01,3.225000
20-11-02-23:40:01,3.125000
20-11-02-23:45:01,3.125000
20-11-02-23:50:02,3.437500
20-11-02-23:55:01,3.250000
20-11-03-00:00:01,3.250000
20-11-03-00:05:01,3.250000
20-11-03-00:10:01,3.450000
20-11-03-00:15:01,3.437500
20-11-03-00:20:01,3.537500
20-11-03-00:25:01,3.562500
20-11-03-00:30:01,3.562500
20-11-03-00:35:01,3.675000
20-11-03-00:40:01,3.737500
20-11-03-00:45:01,3.750000
20-11-03-00:50:01,3.750000
20-11-03-00:55:01,3.750000
20-11-03-01:00:01,3.837500
20-11-03-01:05:01,3.925000
20-11-03-01:10:01,3.937500
20-11-03-01:15:01,4.037500
20-11-03-01:20:01,4.012500
20-11-03-01:25:01,4.162500
20-11-03-01:30:01,3.937500
20-11-03-01:35:01,4.000000
20-11-03-01:40:01,4.062500
20-11-03-01:45:01,3.950000
20-11-03-01:50:01,3.800000
20-11-03-01:55:01,3.737500
20-11-03-02:00:01,4.187500
20-11-03-02:05:01,4.412500
20-11-03-02:10:01,4.687500
20-11-03-02:15:01,4.850000
20-11-03-02:20:01,4.937500
20-11-03-02:25:01,5.000000
20-11-03-02:30:01,5.300000
20-11-03-02:35:01,4.887500
20-11-03-02:40:01,4.837500
20-11-03-02:45:01,5.287500
20-11-03-02:50:01,6.187500
20-11-03-02:55:01,5.237500
20-11-03-03:00:01,5.025000
20-11-03-03:05:01,4.762500
20-11-03-03:10:01,5.250000
20-11-03-03:15:01,5.150000
20-11-03-03:20:01,5.075000
20-11-03-03:25:01,4.987500
20-11-03-03:30:01,5.025000
20-11-03-03:35:01,4.787500
20-11-03-03:40:01,5.087500
20-11-03-03:45:01,4.775000
20-11-03-03:50:01,4.875000
20-11-03-03:55:01,4.687500
20-11-03-04:00:01,4.762500
20-11-03-04:05:01,5.237500
20-11-03-04:10:01,5.250000
20-11-03-04:15:01,4.962500
20-11-03-04:20:01,5.262500
20-11-03-04:25:01,4.800000
20-11-03-04:30:01,4.637500
20-11-03-04:35:01,4.700000
20-11-03-04:40:01,4.837500
20-11-03-04:45:01,4.675000
20-11-03-04:50:01,5.437500
20-11-03-04:55:01,5.000000
20-11-03-05:00:01,5.562500
20-11-03-05:05:01,6.187500
20-11-03-05:10:01,5.187500
20-11-03-05:15:01,5.137500
20-11-03-05:20:01,4.600000
20-11-03-05:25:01,5.500000
20-11-03-05:30:01,6.150000
20-11-03-05:35:01,6.187500
20-11-03-05:40:01,5.812500
20-11-03-05:45:01,6.087500
20-11-03-05:50:01,6.387500
20-11-03-05:55:01,7.350000
20-11-03-06:00:01,8.575000
20-11-03-06:05:01,8.100000
20-11-03-06:10:01,8.575000
20-11-03-06:15:01,6.225000
20-11-03-06:20:01,6.862500
20-11-03-06:25:01,6.625000
20-11-03-06:30:01,6.887500
20-11-03-06:35:01,7.575000
20-11-03-06:40:01,8.325000
20-11-03-06:45:01,7.825000
20-11-03-06:50:01,6.487500
20-11-03-06:55:01,8.625000
20-11-03-07:00:01,6.400000
20-11-03-07:05:01,8.950000
20-11-03-07:10:01,7.475000
20-11-03-07:15:01,7.062500
20-11-03-07:20:01,6.237500
20-11-03-07:25:01,6.112500
20-11-03-07:30:01,5.662500
20-11-03-07:35:01,7.462500
20-11-03-07:40:01,7.512500
20-11-03-07:45:01,6.087500
20-11-03-07:50:01,7.087500
20-11-03-07:55:01,6.537500
20-11-03-08:00:01,6.112500
20-11-03-08:05:01,7.112500
20-11-03-08:10:01,8.312500
20-11-03-08:15:01,6.550000
20-11-03-08:20:01,6.325000
20-11-03-08:25:01,6.650000
20-11-03-08:30:01,6.975000
20-11-03-08:35:01,6.775000
20-11-03-08:40:01,6.962500
20-11-03-08:45:01,6.037500
20-11-03-08:50:01,5.850000
20-11-03-08:55:01,4.950000
20-11-03-09:00:01,4.450000
20-11-03-09:05:01,6.337500
20-11-03-09:10:01,5.387500
20-11-03-09:15:01,4.900000
20-11-03-09:20:01,4.412500
20-11-03-09:25:01,4.175000
20-11-03-09:30:01,5.062500
20-11-03-09:35:01,4.887500
20-11-03-09:40:01,5.812500
20-11-03-09:45:01,5.837500
20-11-03-09:50:01,5.725000
20-11-03-09:55:01,5.525000
20-11-03-10:00:01,5.375000
20-11-03-10:05:01,6.100000
20-11-03-10:10:01,5.250000
20-11-03-10:15:01,4.525000
20-11-03-10:20:01,3.575000
20-11-03-10:25:01,3.312500
20-11-03-10:30:01,3.250000
20-11-03-10:35:01,3.187500
20-11-03-10:40:01,3.112500
20-11-03-10:45:01,3.062500
20-11-03-10:50:01,3.125000
20-11-03-10:55:01,3.062500
20-11-03-11:00:01,3.025000
20-11-03-11:05:01,3.000000
20-11-03-11:10:01,3.025000
20-11-03-11:15:01,3.000000
20-11-03-11:20:01,3.037500
20-11-03-11:25:01,3.025000
20-11-03-11:30:01,2.937500
20-11-03-11:35:01,2.812500
20-11-03-11:40:01,2.750000
20-11-03-11:45:01,2.625000
20-11-03-11:50:01,2.625000
20-11-03-11:55:01,2.637500
20-11-03-12:00:01,2.625000
20-11-03-12:05:01,2.562500
20-11-03-12:10:01,2.362500
20-11-03-12:15:01,2.225000
20-11-03-12:20:01,2.187500
20-11-03-12:25:01,2.250000
20-11-03-12:30:01,2.275000
20-11-03-12:35:01,2.375000
20-11-03-12:40:01,2.562500
20-11-03-12:45:02,2.700000
20-11-03-12:50:01,2.837500
20-11-03-12:55:01,3.000000
20-11-03-13:00:01,3.187500
20-11-03-13:05:01,3.325000
20-11-03-13:10:01,3.500000
20-11-03-13:15:01,3.587500
20-11-03-13:20:01,3.650000
20-11-03-13:25:01,3.800000
20-11-03-13:30:01,3.875000
20-11-03-13:35:01,4.000000
20-11-03-13:40:01,4.125000
20-11-03-13:45:01,4.312500
20-11-03-13:50:01,4.400000
20-11-03-13:55:01,4.550000
20-11-03-14:00:01,4.812500
20-11-03-14:05:02,5.050000
20-11-03-14:10:01,5.187500
20-11-03-14:15:01,5.250000
20-11-03-14:20:01,5.425000
20-11-03-14:25:01,5.687500
20-11-03-14:30:01,5.650000
20-11-03-14:35:01,5.800000
20-11-03-14:40:02,6.025000
20-11-03-14:45:01,6.412500
20-11-03-14:50:01,6.562500
20-11-03-14:55:01,6.812500
20-11-03-15:00:01,6.812500
20-11-03-15:05:01,6.812500
20-11-03-15:10:01,6.850000
20-11-03-15:15:01,6.812500
20-11-03-15:20:01,7.025000
20-11-03-15:25:01,7.125000
20-11-03-15:30:02,6.975000
20-11-03-15:35:01,6.812500
20-11-03-15:40:01,6.875000
20-11-03-15:45:01,7.037500
20-11-03-15:50:01,7.187500
20-11-03-15:55:01,7.350000
20-11-03-16:00:01,7.300000
20-11-03-16:05:01,7.375000
20-11-03-16:10:01,7.500000
20-11-03-16:15:01,7.675000
20-11-03-16:20:01,7.687500
20-11-03-16:25:01,7.675000
20-11-03-16:30:01,7.725000
20-11-03-16:35:01,7.812500
20-11-03-16:40:01,7.800000
20-11-03-16:45:01,7.800000
20-11-03-16:50:01,7.687500
20-11-03-16:55:01,7.750000
20-11-03-17:00:01,7.862500
20-11-03-17:05:01,8.087500
20-11-03-17:10:01,8.487500
20-11-03-17:15:01,8.437500
20-11-03-17:20:01,8.537500
20-11-03-17:25:01,9.037500
20-11-03-17:30:01,9.312500
20-11-03-17:35:01,9.387500
20-11-03-17:40:01,9.600000
20-11-03-17:45:01,9.500000
20-11-03-17:50:01,9.687500
20-11-03-17:55:01,9.450000
20-11-03-18:00:01,9.562500
20-11-03-18:05:01,10.125000
20-11-03-18:10:01,10.187500
20-11-03-18:15:01,10.425000
20-11-03-18:20:01,11.950000
20-11-03-18:25:01,13.250000
20-11-03-18:30:01,12.437500
20-11-03-18:35:01,11.350000
20-11-03-18:40:01,11.587500
20-11-03-18:45:01,12.012500
20-11-03-18:50:01,13.375000
20-11-03-18:55:01,13.125000
20-11-03-19:00:01,12.400000
20-11-03-19:05:01,11.587500
20-11-03-19:10:01,10.887500
20-11-03-19:15:01,10.512500
20-11-03-19:20:01,10.312500
20-11-03-19:25:01,10.050000
20-11-03-19:30:01,9.500000
20-11-03-19:35:01,9.562500
20-11-03-19:40:01,9.562500
20-11-03-19:45:01,9.437500
20-11-03-19:50:01,9.437500
20-11-03-19:55:01,9.400000
20-11-03-20:00:01,9.437500
20-11-03-20:05:01,9.437500
20-11-03-20:10:01,9.487500
20-11-03-20:15:01,9.625000
20-11-03-20:20:01,9.675000
20-11-03-20:25:01,9.500000
20-11-03-20:30:01,9.362500
20-11-03-20:35:01,9.312500
20-11-03-20:40:01,9.337500
20-11-03-20:45:01,9.500000
20-11-03-20:50:01,9.562500
20-11-03-20:55:01,9.562500
20-11-03-21:00:01,9.625000
20-11-03-21:05:01,9.500000
20-11-03-21:10:01,9.350000
20-11-03-21:15:01,9.200000
20-11-03-21:20:01,9.125000
20-11-03-21:25:01,9.000000
20-11-03-21:30:01,8.875000
20-11-03-21:35:01,8.750000
20-11-03-21:40:01,8.600000
20-11-03-21:45:01,8.437500
20-11-03-21:50:01,8.375000
20-11-03-21:55:01,8.137500
20-11-03-22:00:01,7.875000
20-11-03-22:05:01,7.625000
20-11-03-22:10:01,7.375000
20-11-03-22:15:01,7.300000
20-11-03-22:20:01,7.250000
20-11-03-22:25:01,7.125000
20-11-03-22:30:01,6.937500
20-11-03-22:35:01,6.662500
20-11-03-22:40:01,6.437500
20-11-03-22:45:01,6.250000
20-11-03-22:50:01,6.075000
20-11-03-22:55:01,5.975000
20-11-03-23:00:01,5.875000
20-11-03-23:05:01,5.750000
20-11-03-23:10:01,5.625000
20-11-03-23:15:01,5.600000
20-11-03-23:20:01,5.625000
20-11-03-23:25:01,5.575000
20-11-03-23:30:01,5.537500
20-11-03-23:35:01,5.500000
20-11-03-23:40:01,5.312500
20-11-03-23:45:01,5.262500
20-11-03-23:50:01,5.137500
20-11-03-23:55:01,5.012500
20-11-04-00:00:01,4.937500
20-11-04-00:05:01,4.812500
20-11-04-00:10:01,4.725000
20-11-04-00:15:02,4.587500
20-11-04-00:20:01,4.437500
20-11-04-00:25:01,4.312500
20-11-04-00:30:01,4.250000
20-11-04-00:35:01,4.125000
20-11-04-00:40:01,4.062500
20-11-04-00:45:01,3.987500
20-11-04-00:50:02,3.850000
20-11-04-00:55:01,3.750000
20-11-04-01:00:01,3.625000
20-11-04-01:05:01,3.500000
20-11-04-01:10:02,3.500000
20-11-04-01:15:01,3.375000
20-11-04-01:20:01,3.275000
20-11-04-01:25:01,3.200000
20-11-04-01:30:01,3.187500
20-11-04-01:35:01,3.062500
20-11-04-01:40:01,3.000000
20-11-04-01:45:02,2.937500
20-11-04-01:50:01,2.875000
20-11-04-01:55:01,2.925000
20-11-04-02:00:01,2.787500
20-11-04-02:05:01,2.687500
20-11-04-02:10:01,2.675000
20-11-04-02:15:01,2.687500
20-11-04-02:20:01,2.562500
20-11-04-02:25:01,2.650000
20-11-04-02:30:01,2.500000
20-11-04-02:35:01,2.375000
20-11-04-02:40:01,2.312500
20-11-04-02:45:01,2.325000
20-11-04-02:50:01,2.375000
20-11-04-02:55:01,2.475000
20-11-04-03:00:01,2.375000
20-11-04-03:05:01,2.312500
20-11-04-03:10:01,2.250000
20-11-04-03:15:01,2.187500
20-11-04-03:20:01,2.125000
20-11-04-03:25:01,1.900000
20-11-04-03:30:01,1.812500
20-11-04-03:35:01,1.750000
20-11-04-03:40:01,1.687500
20-11-04-03:45:01,1.625000
20-11-04-03:50:01,1.687500
20-11-04-03:55:01,1.637500
20-11-04-04:00:01,1.562500
20-11-04-04:05:01,1.625000
20-11-04-04:10:01,1.637500
20-11-04-04:15:01,1.687500
20-11-04-04:20:01,2.000000
20-11-04-04:25:01,2.500000
20-11-04-04:30:01,3.037500
20-11-04-04:35:01,3.412500
20-11-04-04:40:01,3.400000
20-11-04-04:45:01,3.437500
20-11-04-04:50:01,3.375000
20-11-04-04:55:01,3.325000
20-11-04-05:00:01,3.325000
20-11-04-05:05:01,3.375000
20-11-04-05:10:01,3.375000
20-11-04-05:15:01,3.687500
20-11-04-05:20:01,3.687500
20-11-04-05:25:01,3.775000
20-11-04-05:30:01,3.875000
20-11-04-05:35:01,3.850000
20-11-04-05:40:01,3.887500
20-11-04-05:45:01,4.000000
20-11-04-05:50:01,4.212500
20-11-04-05:55:01,4.475000
20-11-04-06:00:01,4.687500
20-11-04-06:05:01,4.837500
20-11-04-06:10:01,4.825000
20-11-04-06:15:01,4.937500
20-11-04-06:20:01,5.075000
20-11-04-06:25:01,5.187500
20-11-04-06:30:01,5.312500
20-11-04-06:35:01,5.437500
20-11-04-06:40:01,5.500000
20-11-04-06:45:01,5.625000
20-11-04-06:50:01,5.625000
20-11-04-06:55:01,5.625000
20-11-04-07:00:01,5.750000
20-11-04-07:05:01,5.925000
20-11-04-07:10:01,5.937500
20-11-04-07:15:01,5.987500
20-11-04-07:20:01,6.112500
20-11-04-07:25:01,6.312500
20-11-04-07:30:01,6.437500
20-11-04-07:35:01,6.525000
20-11-04-07:40:01,6.637500
20-11-04-07:45:01,6.737500
20-11-04-07:50:01,6.750000
20-11-04-07:55:01,6.812500
20-11-04-08:00:01,6.750000
20-11-04-08:05:01,6.800000
20-11-04-08:10:01,6.762500
20-11-04-08:15:01,6.750000
20-11-04-08:20:01,6.862500
20-11-04-08:25:01,6.937500
20-11-04-08:30:01,7.000000
20-11-04-08:35:01,6.937500
20-11-04-08:40:01,6.937500
20-11-04-08:45:01,6.875000
20-11-04-08:50:01,7.000000
20-11-04-08:55:01,6.925000
20-11-04-09:00:01,7.112500
20-11-04-09:05:01,6.862500
20-11-04-09:10:01,6.825000
20-11-04-09:15:01,6.737500
20-11-04-09:20:02,6.625000
20-11-04-09:25:01,6.550000
20-11-04-09:30:01,6.437500
20-11-04-09:35:01,6.375000
20-11-04-09:40:01,6.412500
20-11-04-09:45:01,6.375000
20-11-04-09:50:01,6.412500
20-11-04-09:55:01,6.325000
20-11-04-10:00:01,6.412500
20-11-04-10:05:01,6.350000
20-11-04-10:10:01,6.437500
20-11-04-10:15:01,6.500000
20-11-04-10:20:01,6.625000
20-11-04-10:25:01,6.637500
20-11-04-10:30:01,6.675000
20-11-04-10:35:01,7.300000
20-11-04-10:40:01,6.812500
20-11-04-10:45:01,6.750000
20-11-04-10:50:01,6.750000
20-11-04-10:55:01,6.875000
20-11-04-11:00:01,6.687500
20-11-04-11:05:01,6.687500
20-11-04-11:10:01,6.750000
20-11-04-11:15:01,7.225000
20-11-04-11:20:01,6.937500
20-11-04-11:25:01,6.787500
20-11-04-11:30:01,6.875000
20-11-04-11:35:01,6.887500
20-11-04-11:40:01,6.937500
20-11-04-11:45:01,7.062500
20-11-04-11:50:01,7.175000
20-11-04-11:55:01,7.125000
20-11-04-12:00:01,7.125000
20-11-04-12:05:01,7.225000
20-11-04-12:10:01,7.312500
20-11-04-12:15:01,7.337500
20-11-04-12:20:01,7.412500
20-11-04-12:25:01,7.437500
20-11-04-12:30:01,7.500000
20-11-04-12:35:01,7.575000
20-11-04-12:40:01,7.625000
20-11-04-12:45:01,7.637500
20-11-04-12:50:01,7.800000
20-11-04-12:55:01,7.850000
20-11-04-13:05:01,8.250000
20-11-04-13:10:01,8.375000
20-11-04-13:15:01,8.562500
20-11-04-13:20:01,8.625000
20-11-04-13:25:01,8.812500
20-11-04-13:30:01,9.075000
20-11-04-13:35:02,9.237500
20-11-04-13:40:01,9.312500
20-11-04-13:45:01,9.437500
20-11-04-13:50:01,9.725000
20-11-04-13:55:01,10.062500
20-11-04-14:00:01,10.150000
20-11-04-14:05:01,10.375000
20-11-04-14:10:01,10.512500
20-11-04-14:15:01,10.750000
20-11-04-14:20:01,10.925000
20-11-04-14:25:01,11.250000
20-11-04-14:30:01,11.500000
20-11-04-14:35:01,11.562500
20-11-04-14:40:01,11.737500
20-11-04-14:45:01,12.000000
20-11-04-14:50:01,12.150000
20-11-04-14:55:01,12.312500
20-11-04-15:00:01,12.550000
20-11-04-15:05:01,12.687500
20-11-04-15:10:01,12.750000
20-11-04-15:15:01,13.187500
20-11-04-15:20:01,13.250000
20-11-04-15:25:01,13.337500
20-11-04-15:30:01,13.425000
20-11-04-15:35:01,13.600000
20-11-04-15:40:01,14.000000
20-11-04-15:45:01,14.250000
20-11-04-15:50:01,14.287500
20-11-04-15:55:01,14.250000
20-11-04-16:00:01,14.562500
20-11-04-16:05:01,14.775000
20-11-04-16:10:01,15.200000
20-11-04-16:15:01,15.750000
20-11-04-16:20:01,16.312500
20-11-04-16:25:01,17.075001
20-11-04-16:30:02,17.462500
20-11-04-16:35:01,17.937500
20-11-04-16:40:01,18.062500
20-11-04-16:45:01,18.250000
20-11-04-16:50:01,18.600000
20-11-04-16:55:01,18.987499
20-11-04-17:00:01,19.612499
20-11-04-17:05:01,19.187500
20-11-04-17:10:01,18.662500
20-11-04-17:15:01,19.525000
20-11-04-17:20:01,20.137501
20-11-04-17:25:01,20.250000
20-11-04-17:30:01,20.475000
20-11-04-17:35:01,20.887501
20-11-04-17:40:01,21.112499
20-11-04-17:45:01,20.875000
20-11-04-17:50:01,20.662500
20-11-04-17:55:01,21.650000
20-11-04-18:00:01,21.812500
20-11-04-18:05:01,22.062500
20-11-04-18:10:01,21.650000
20-11-04-18:15:01,21.662500
20-11-04-18:20:01,22.299999
20-11-04-18:25:01,21.637501
20-11-04-18:30:01,21.475000
20-11-04-18:35:01,22.200001
20-11-04-18:40:01,21.937500
20-11-04-18:45:01,22.375000
20-11-04-18:50:01,22.000000
20-11-04-18:55:01,22.450001
20-11-04-19:00:01,22.500000
20-11-04-19:05:01,22.525000
20-11-04-19:10:01,22.337500
20-11-04-19:15:01,22.625000
20-11-04-19:20:01,22.275000
20-11-04-19:25:01,22.674999
20-11-04-19:30:01,22.687500
20-11-04-19:35:01,23.212500
20-11-04-19:40:01,23.549999
20-11-04-19:45:01,23.012501
20-11-04-19:50:01,22.475000
20-11-04-19:55:01,23.037500
20-11-04-20:00:01,22.450001
20-11-04-20:05:01,21.924999
20-11-04-20:10:01,22.312500
20-11-04-20:15:01,22.612499
20-11-04-20:20:01,22.250000
20-11-04-20:25:01,21.200001
20-11-04-20:30:01,21.062500
20-11-04-20:35:01,20.362499
20-11-04-20:40:01,19.362499
20-11-04-20:45:01,18.562500
20-11-04-20:50:01,17.850000
20-11-04-20:55:01,17.325001
20-11-04-21:00:01,16.937500
20-11-04-21:05:01,16.812500
20-11-04-21:10:01,16.787500
20-11-04-21:15:01,16.437500
20-11-04-21:20:01,16.325001
20-11-04-21:25:01,16.137501
20-11-04-21:30:01,16.137501
20-11-04-21:35:01,16.075001
20-11-04-21:40:01,15.962500
20-11-04-21:45:02,15.987500
20-11-04-21:50:01,15.875000
20-11-04-21:55:01,15.750000
20-11-04-22:00:01,15.500000
20-11-04-22:05:01,15.487500
20-11-04-22:10:01,15.375000
20-11-04-22:15:01,15.312500
20-11-04-22:20:01,15.125000
20-11-04-22:25:01,15.162500
20-11-04-22:30:01,14.800000
20-11-04-22:35:01,14.737500
20-11-04-22:40:01,14.762500
20-11-04-22:45:01,14.512500
20-11-04-22:50:01,14.437500
20-11-04-22:55:01,14.200000
20-11-04-23:00:01,14.125000
20-11-04-23:05:01,14.187500
20-11-04-23:10:01,14.200000
20-11-04-23:15:01,13.937500
20-11-04-23:20:01,13.762500
20-11-04-23:25:01,13.600000
20-11-04-23:30:01,13.562500
20-11-04-23:35:01,13.562500
20-11-04-23:40:01,13.587500
20-11-04-23:45:01,13.625000
20-11-04-23:50:01,13.662500